Location: Unspecified
(0.0000°N, 0.0000°E)
Time: 17:33:43
(UTC+00:00)

Vanguard 1 - All Passes

Search period start: 29 April 2017 00:00
Search period end: 09 May 2017 00:00
Orbit: 654 x 3831 km, 34.3° (Epoch: 27 April)

Date Brightness Start Highest point End Pass type
(mag) Time Alt. Az. Time Alt. Az. Time Alt. Az.
29 Apr - 02:27:37 10° NW 02:40:16 17° N 02:50:28 10° NE visible
29 Apr - 04:57:49 10° NNW 05:10:36 26° NNE 05:18:46 10° ENE visible
29 Apr - 07:23:15 10° NW 07:34:50 76° NE 07:41:06 10° ESE daylight
29 Apr - 09:51:25 10° WSW 09:54:55 15° SW 09:57:48 10° S daylight
29 Apr - 17:00:51 10° S 17:08:03 24° SE 17:19:00 10° E daylight
29 Apr - 19:18:37 10° SW 19:30:34 84° SE 19:51:56 10° NE visible
29 Apr - 21:41:37 10° W 21:57:24 44° NNW 22:19:09 10° NE visible
30 Apr - 00:13:42 10° WNW 00:29:33 22° NNW 00:45:05 10° NNE visible
30 Apr - 02:50:54 10° NNW 03:03:59 19° N 03:14:03 10° NE visible
30 Apr - 05:19:05 10° NW 05:32:56 34° NNE 05:41:08 10° E visible
30 Apr - 07:45:00 10° WNW 07:56:01 73° SW 08:02:04 10° SE daylight
30 Apr - 17:20:55 10° SSW 17:29:10 34° SE 17:43:00 10° ENE daylight
30 Apr - 19:39:47 10° WSW 19:52:08 79° NW 20:13:53 10° NE visible
30 Apr - 22:04:21 10° W 22:20:06 36° NNW 22:40:35 10° NE visible
01 May - 00:38:33 10° NW 00:53:32 20° N 01:07:32 10° NNE visible
01 May - 03:13:17 10° NNW 03:27:24 21° NNE 03:37:36 10° ENE visible
01 May - 05:40:23 10° NW 05:55:00 45° NNE 06:03:05 10° E daylight
01 May - 08:07:08 10° WNW 08:16:59 46° SW 08:22:44 10° SSE daylight
01 May - 17:41:18 10° SSW 17:50:12 48° SE 18:06:13 10° ENE daylight
01 May - 20:01:14 10° WSW 20:13:57 63° NNW 20:35:35 10° NE visible
01 May - 22:27:37 10° WNW 22:43:10 29° NNW 23:02:10 10° NNE visible
02 May - 01:03:07 10° NW 01:17:41 19° N 01:30:40 10° NE visible
02 May - 03:35:08 10° NNW 03:50:28 26° NNE 04:00:49 10° ENE visible
02 May - 06:01:49 10° NW 06:16:46 61° NNE 06:24:39 10° ESE daylight
02 May - 08:29:48 10° W 08:37:51 29° SW 08:43:02 10° SSE daylight
02 May - 15:46:55 10° SSE 15:50:00 12° SE 15:53:40 10° ESE daylight
02 May - 18:01:56 10° SW 18:11:17 66° SE 18:28:53 10° ENE visible
02 May - 20:23:01 10° WSW 20:36:03 50° NNW 20:57:07 10° NE visible
02 May - 22:51:26 10° WNW 23:06:36 25° NNW 23:24:03 10° NNE visible
03 May - 01:26:57 10° NW 01:41:48 20° N 01:54:20 10° NE visible
03 May - 03:56:41 10° NW 04:13:11 32° NNE 04:23:34 10° E visible
03 May - 06:23:28 10° NW 06:38:14 84° NE 06:45:52 10° ESE daylight
03 May - 08:53:18 10° W 08:58:44 18° SW 09:02:47 10° S daylight
03 May - 16:05:42 10° S 16:11:10 20° SE 16:19:04 10° E daylight
03 May - 18:22:50 10° SW 18:32:33 86° SE 18:51:06 10° NE visible
03 May - 20:45:13 10° W 20:58:27 40° NNW 21:18:37 10° NE visible
03 May - 23:15:40 10° NW 23:30:25 22° N 23:46:24 10° NNE visible
04 May - 01:49:56 10° NNW 02:05:39 22° N 02:18:12 10° NE visible
04 May - 04:18:08 10° NW 04:35:35 41° NNE 04:45:51 10° E visible
04 May - 06:45:26 10° WNW 06:59:27 71° SW 07:06:48 10° SE daylight
04 May - 16:25:33 10° SSW 16:32:09 31° SE 16:42:55 10° E daylight
04 May - 18:43:58 10° WSW 18:54:02 74° NW 19:12:59 10° NE visible
04 May - 21:07:52 10° W 21:21:10 32° NNW 21:40:10 10° NE visible
04 May - 23:40:00 10° NW 23:54:32 20° N 00:09:25 10° NE visible
05 May - 02:12:13 10° NNW 02:29:10 25° NNE 02:41:52 10° ENE visible
05 May - 04:39:36 10° NW 04:57:42 53° NNE 05:07:44 10° ESE visible
05 May - 07:07:48 10° WNW 07:20:28 49° SW 07:27:28 10° SSE daylight
05 May - 16:45:52 10° SSW 16:53:04 45° SE 17:05:59 10° ENE daylight
05 May - 19:05:25 10° WSW 19:15:48 57° NNW 19:34:38 10° NE visible
05 May - 21:31:01 10° WNW 21:44:14 27° NNW 22:01:54 10° NNE visible
06 May - 00:03:57 10° NW 00:18:46 20° N 00:33:08 10° NE visible
06 May - 02:34:02 10° NW 02:52:18 30° NNE 03:05:06 10° ENE visible
06 May - 05:01:12 10° NW 05:19:31 69° NE 05:29:15 10° ESE visible
06 May - 07:30:41 10° WNW 07:41:22 33° SW 07:47:50 10° SSE daylight
06 May - 17:06:28 10° SW 17:14:03 66° SE 17:28:29 10° ENE daylight
06 May - 19:27:12 10° W 19:37:51 44° NNW 19:56:09 10° NE visible
06 May - 21:54:38 10° WNW 22:07:40 23° NNW 22:24:02 10° NNE visible
07 May - 00:27:13 10° NW 00:42:55 21° N 00:57:18 10° NE visible
07 May - 02:55:37 10° NW 03:15:05 37° NNE 03:27:51 10° E visible
07 May - 05:23:01 10° NW 05:41:03 89° NE 05:50:26 10° SE visible
07 May - 07:54:19 10° W 08:02:19 21° SW 08:07:46 10° S daylight
07 May - 15:10:43 10° S 15:14:41 16° SE 15:19:53 10° E daylight
07 May - 17:27:20 10° SW 17:35:14 90° NNW 17:50:33 10° NE daylight
07 May - 19:49:23 10° W 20:00:13 35° NNW 20:17:36 10° NE visible
07 May - 22:18:32 10° NW 22:31:29 20° N 22:46:46 10° NE visible
08 May - 00:49:48 10° NNW 01:06:49 24° NNE 01:21:31 10° ENE visible
08 May - 03:17:07 10° NW 03:37:32 47° NNE 03:50:07 10° E visible
08 May - 05:45:08 10° WNW 06:02:20 70° SW 06:11:22 10° SE daylight
08 May - 08:19:17 10° WSW 08:23:25 13° SW 08:26:46 10° SSW daylight
08 May - 15:30:21 10° SSW 15:35:36 27° SE 15:43:39 10° E daylight
08 May - 17:48:30 10° WSW 17:56:40 67° NNW 18:12:18 10° NE daylight
08 May - 20:12:01 10° WNW 20:22:53 28° NNW 20:39:09 10° NNE visible
08 May - 22:42:22 10° NW 22:55:34 19° N 23:10:19 10° NE visible
